User: anonymous   Login
Location: Carnières
(50.1682°N, 3.3474°E)
Time: 19:05:19
(UTC+00:00)
Language:

ADEOS II - Orbit

View from above orbital plane
View from above orbital plane
View from above satellite
View from above satellite

Ground track
Ground track

The orbit data is extracted from the following two-line orbital elements,

1 27597U 02056A   24201.82027577  .00000715  00000-0  30347-3 0  9993
2 27597  98.6926 148.3766 0000814  31.3900 328.7330 14.28416437124919
Epoch (UTC): 19 July 2024 19:41:11
Eccentricity: 0.0000814
inclination: 98.6926°
perigee height: 796 km
apogee height: 797 km
right ascension of ascending node: 148.3766°
argument of perigee: 31.3900°
revolutions per day: 14.28416437
mean anomaly at epoch: 328.7330°
orbit number at epoch: 12491

The dashed part of the orbit path shows where the satellite is in the earth's shadow,  

DLR